[[{"header":{"parameterUnit":"m.s-1","parameterCategory":1,"la1":30.2991,"la2":30.254,"lo1":-89.0895,"lo2":-89.0444,"dy":0.0017,"dx":0.0017,"nx":28,"ny":28,"refTime":"2024-10-18T03:00:00:Z","depth":0,"parameterNumber":2,"parameterNumberName":"U-component_of_WINDS"},"data":[0,0,0,0,0,0,0,0,0,0,0,0,0,0,0,0,0,0,0,0,0,0,0,0,0,0,0,0,0,0,0,0,0,0,0,0,0,0,0,0,0,0,0,0,0,0,0,0,0,0,0,0,0,0,0,0,0,0,-4.3573,-4.3573,0,-4.3568,-4.3568,-4.3568,-4.3418,-4.3414,-4.3411,-4.3407,-4.3402,-4.3406,-4.3409,0,0,0,0,0,0,0,0,0,0,0,0,0,-4.3451,-4.3454,-4.3573,-4.3573,-4.3573,-4.3568,-4.3568,-4.3568,-4.3419,-4.3414,-4.341,-4.3405,-4.3401,-4.3405,-4.3409,0,0,0,0,0,0,0,0,0,0,0,0,0,-4.3481,-4.3455,-4.3573,-4.3498,-4.3491,-4.3568,-4.3568,-4.3568,-4.342,-4.3414,-4.3408,-4.3403,-4.34,-4.3405,-4.341,-4.3559,0,0,-4.3426,-4.3428,0,0,0,0,0,0,0,0,-4.348,-4.3486,-4.3509,-4.3503,-4.3496,-4.3488,-4.3523,-4.3565,-4.3421,-4.3447,-4.3407,-4.34,-4.3435,-4.3437,-4.3449,-4.3558,-4.3558,-4.3426,-4.343,-4.3432,-4.3433,0,0,0,0,0,0,0,-4.3478,-4.3485,-4.3571,-4.3509,-4.3501,-4.3464,-4.3462,-4.3531,-4.3474,-4.3444,-4.3433,-4.3435,-4.3431,-4.3445,-4.3448,-4.3558,-4.3426,-4.3431,-4.3434,-4.3436,-4.3787,-4.3793,0,0,0,0,0,0,-4.3486,-4.3484,-4.3571,-4.3571,-4.3473,-4.3471,-4.3468,-4.3496,-4.3473,-4.3463,-4.344,-4.3428,-4.3438,-4.3442,-4.3447,-4.3618,-4.3432,-4.3437,-4.344,-4.3781,-4.3789,-4.3796,0,0,0,0,0,0,-4.3484,-4.3495,-4.3571,-4.3525,-4.3531,-4.3479,-4.3512,-4.3499,-4.3513,-4.3469,-4.3458,-4.3465,-4.3434,-4.344,-4.3532,-4.3616,-4.3439,-4.3444,-4.3774,-4.3784,-4.3792,-4.3963,0,0,0,0,0,0,-4.3481,-4.3496,-4.3552,-4.3527,-4.3535,-4.3656,-4.3517,-4.3503,-4.3522,-4.3507,-4.349,-4.3481,-4.343,-4.3525,-4.3537,-4.362,-4.3448,-4.3766,-4.3778,-4.3789,-4.395,-4.3977,-4.4001,0,0,0,0,0,-4.3478,-4.36,-4.3555,-4.3567,-4.3604,-4.3661,-4.3666,-4.3604,-4.353,-4.3585,-4.3557,-4.3482,-4.3606,-4.3535,-4.3548,-4.3634,-4.3761,-4.3775,-4.3788,-4.3938,-4.3972,-4.4,0,0,0,0,0,0,-4.3636,-4.3596,-4.3545,-4.3664,-4.3667,-4.3636,-4.3704,-4.3642,-4.3666,-4.3651,-4.3573,-4.3571,-4.3675,-4.3663,-4.3586,-4.3776,-4.367,-4.3687,-4.3779,-4.3811,-4.3836,-4.3836,-4.3452,0,0,0,0,0,-4.3685,-4.3736,-4.3697,-4.3806,-4.381,-4.3758,-4.378,-4.3733,-4.3733,-4.3734,-4.3712,-4.3716,-4.3755,-4.3782,-4.3816,-4.3948,-4.3941,-4.4013,-4.4039,-4.406,-4.4075,-4.4143,-4.4174,-4.3841,-4.3841,-4.3841,0,0,-4.3786,-4.377,-4.3807,-4.3837,-4.3834,-4.3888,-4.376,-4.3822,-4.3861,-4.3743,-4.3828,-4.3813,-4.3811,-4.3924,-4.3972,-4.3917,-4.4166,-4.4078,-4.4095,-4.4099,-4.4161,-4.4192,-4.422,-4.3851,-4.3849,-4.3848,0,0,-4.3998,-4.3992,-4.408,-4.408,-4.4077,-4.4041,-4.4063,-4.4041,-4.4027,-4.4111,-4.4023,-4.4069,-4.4138,-4.414,-4.4151,-4.4363,-4.4294,-4.4377,-4.4509,-4.4576,-4.4603,-4.4625,-4.47,-4.4728,-4.4392,-4.4393,-4.4393,0,-4.4124,-4.4201,-4.4134,-4.4202,-4.4217,-4.4113,-4.4202,-4.4205,-4.4214,-4.4227,-4.4166,-4.4251,-4.4242,-4.4353,-4.4405,-4.4417,-4.4439,-4.4378,-4.4604,-4.4627,-4.4647,-4.4717,-4.4746,-4.4403,-4.4402,-4.4401,-4.44,0,-4.4356,-4.4411,-4.4483,-4.4494,-4.4517,-4.4596,-4.454,-4.4572,-4.4523,-4.4493,-4.458,-4.4567,-4.4595,-4.4618,-4.4571,-4.4723,-4.4689,-4.4618,-4.4509,-4.469,-4.4755,-4.4781,-4.4417,-4.4413,-4.441,-4.4408,0,0,-4.4667,-4.4639,-4.4666,-4.4669,-4.4659,-4.47,-4.4773,-4.4802,-4.483,-4.484,-4.4899,-4.4961,-4.4894,-4.4906,-4.4858,-4.4917,-4.5085,-4.4838,-4.4837,-4.4884,-4.5251,-4.5304,-4.5336,-4.504,-4.5045,-4.5049,-4.525,0,-4.487,-4.4994,-4.4935,-4.5065,-4.5115,-4.5017,-4.5081,-4.5081,-4.5056,-4.5094,-4.5066,-4.5111,-4.502,-4.5027,-4.5081,-4.5054,-4.5158,-4.5038,-4.5094,-4.5097,-4.5096,-4.537,-4.5426,-4.5617,-4.5275,-4.528,-4.5283,0,-4.5124,-4.5144,-4.5279,-4.5259,-4.5277,-4.5336,-4.5356,-4.5394,-4.5393,-4.537,-4.5384,-4.5322,-4.5392,-4.5286,-4.5381,-4.5301,-4.532,-4.5311,-4.5316,-4.5318,-4.52,-4.5378,-4.5676,-4.5705,-4.5322,-4.5319,-4.5316,0,-4.5336,-4.5396,-4.5485,-4.5491,-4.5469,-4.5513,-4.5506,-4.5498,-4.5519,-4.5537,-4.5549,-4.5576,-4.5591,-4.5613,-4.556,-4.5487,-4.5663,-4.5551,-4.5645,-4.5647,-4.5685,-4.5684,-4.599,-4.5701,-4.57,-4.57,-4.5699,0,-4.5568,-4.5655,-4.5579,-4.5634,-4.5728,-4.5659,-4.5754,-4.5736,-4.5731,-4.578,-4.5697,-4.5745,-4.5672,-4.5713,-4.5672,-4.5757,-4.5765,-4.5748,-4.5736,-4.5755,-4.5757,-4.5766,-4.5751,-4.5707,-4.5705,-4.5704,-4.5703,0,-4.582,-4.5773,-4.5863,-4.5835,-4.583,-4.5901,-4.5877,-4.5926,-4.5895,-4.5958,-4.5969,-4.5921,-4.5964,-4.5914,-4.5954,-4.5926,-4.6041,-4.601,-4.6042,-4.6032,-4.6128,-4.612,-4.645,-4.649,-4.6176,-4.6179,-4.6182,0,-4.5971,-4.6035,-4.6014,-4.6041,-4.6039,-4.6084,-4.6104,-4.6039,-4.6064,-4.6067,-4.6116,-4.6152,-4.6178,-4.6252,-4.6221,-4.625,-4.6219,-4.6332,-4.6223,-4.6239,-4.6219,-4.6216,-4.6221,-4.6355,-4.6358,-4.6361,-4.6364,0,-4.6244,-4.6218,-4.625,-4.6275,-4.6302,-4.6318,-4.6328,-4.6355,-4.6287,-4.6319,-4.6363,-4.6383,-4.6423,-4.646,-4.6481,-4.6473,-4.6408,-4.6399,-4.6422,-4.6441,-4.6457,-4.6449,-4.6101,-4.6391,-4.6389,-4.6387,-4.6385,-4.6384,-4.6449,-4.6501,-4.6494,-4.6533,-4.6534,-4.6545,-4.659,-4.6564,-4.6599,-4.6627,-4.6587,-4.6641,-4.6637,-4.6658,-4.6658,-4.67,-4.6651,-4.6685,-4.6693,-4.6702,-4.6716,-4.6451,-4.6703,-4.6703,-4.6702,-4.6701,-4.67,0,-4.6717,-4.6707,-4.6744,-4.676,-4.6791,-4.6727,-4.6734,-4.6764,-4.6813,-4.6814,-4.6841,-4.6891,-4.6927,-4.6899,-4.6928,-4.6967,-4.6937,-4.6977,-4.6973,-4.6972,-4.6758,-4.6735,-4.7,-4.7,-4.7,-4.7,-4.7,-4.7,-4.6859,-4.6944,-4.6917,-4.7,-4.699,-4.7042,-4.7052,-4.7062,-4.7063,-4.7122,-4.7151,-4.7132,-4.7122,-4.715,-4.718,-4.7171,-4.7185,-4.7235,-4.7215,-4.7016,-4.6987,-4.6959,-4.6936,-4.7239,-4.7239,-4.7425,-4.7426,-4.7428]},{"header":{"parameterUnit":"m.s-1","parameterCategory":1,"la1":30.2991,"la2":30.254,"lo1":-89.0895,"lo2":-89.0444,"dy":0.0017,"dx":0.0017,"nx":28,"ny":28,"refTime":"2024-10-18T03:00:00:Z","depth":0,"parameterNumber":3,"parameterNumberName":"V-component_of_WINDS"},"data":[0,0,0,0,0,0,0,0,0,0,0,0,0,0,0,0,0,0,0,0,0,0,0,0,0,0,0,0,0,0,0,0,0,0,0,0,0,0,0,0,0,0,0,0,0,0,0,0,0,0,0,0,0,0,0,0,0,0,-1.2858,-1.2859,0,-1.2958,-1.2959,-1.296,-1.2984,-1.2983,-1.2982,-1.2982,-1.3084,-1.3088,-1.3091,0,0,0,0,0,0,0,0,0,0,0,0,0,-1.2684,-1.2687,-1.2858,-1.2859,-1.286,-1.2958,-1.2959,-1.2961,-1.2984,-1.2983,-1.2982,-1.2981,-1.3083,-1.3087,-1.3091,0,0,0,0,0,0,0,0,0,0,0,0,0,-1.2769,-1.2688,-1.2857,-1.2883,-1.2887,-1.2958,-1.2959,-1.2961,-1.2984,-1.2983,-1.2982,-1.2981,-1.3082,-1.3087,-1.3092,-1.3144,0,0,-1.3107,-1.311,0,0,0,0,0,0,0,0,-1.2764,-1.2776,-1.2878,-1.2882,-1.2886,-1.2957,-1.2936,-1.3022,-1.2984,-1.2947,-1.2982,-1.298,-1.3043,-1.3051,-1.3072,-1.3149,-1.3153,-1.3108,-1.3111,-1.3113,-1.3115,0,0,0,0,0,0,0,-1.2759,-1.2771,-1.2897,-1.288,-1.2884,-1.2889,-1.29,-1.2952,-1.3,-1.295,-1.2952,-1.2964,-1.3045,-1.3067,-1.3075,-1.3155,-1.3108,-1.3112,-1.3115,-1.3117,-1.3277,-1.3279,0,0,0,0,0,0,-1.2748,-1.2766,-1.2894,-1.29,-1.2821,-1.2893,-1.2906,-1.2935,-1.2999,-1.3008,-1.2965,-1.2964,-1.3059,-1.3069,-1.3079,-1.3143,-1.3113,-1.3118,-1.3121,-1.3276,-1.3278,-1.3279,0,0,0,0,0,0,-1.2744,-1.2759,-1.289,-1.2834,-1.2851,-1.2898,-1.2931,-1.2938,-1.2961,-1.301,-1.3018,-1.2979,-1.3059,-1.3071,-1.3127,-1.3147,-1.312,-1.3125,-1.3275,-1.3277,-1.3278,-1.3273,0,0,0,0,0,0,-1.2739,-1.2758,-1.2779,-1.2834,-1.2854,-1.2938,-1.2932,-1.2941,-1.2969,-1.297,-1.3026,-1.3034,-1.3059,-1.312,-1.3132,-1.3153,-1.3129,-1.3273,-1.3276,-1.3278,-1.3271,-1.3274,-1.3277,0,0,0,0,0,-1.2733,-1.2773,-1.278,-1.2795,-1.2881,-1.2939,-1.295,-1.2978,-1.2971,-1.2992,-1.3023,-1.3032,-1.3142,-1.3125,-1.314,-1.3163,-1.3272,-1.3275,-1.3278,-1.327,-1.3274,-1.3277,0,0,0,0,0,0,-1.272,-1.2781,-1.2789,-1.2849,-1.2888,-1.2943,-1.297,-1.2981,-1.3023,-1.3022,-1.3055,-1.3067,-1.3121,-1.3147,-1.3127,-1.3216,-1.3207,-1.3213,-1.3197,-1.32,-1.3203,-1.3195,-1.3133,0,0,0,0,0,-1.2723,-1.2765,-1.2817,-1.2865,-1.2884,-1.2923,-1.295,-1.2967,-1.301,-1.3027,-1.3062,-1.3103,-1.3146,-1.3175,-1.3218,-1.3275,-1.3287,-1.3298,-1.33,-1.3302,-1.3307,-1.3338,-1.3343,-1.3288,-1.3288,-1.3288,0,0,-1.2732,-1.2771,-1.2796,-1.2863,-1.2896,-1.2938,-1.2938,-1.2983,-1.3014,-1.3034,-1.3088,-1.3116,-1.3163,-1.3219,-1.3246,-1.3243,-1.3325,-1.3306,-1.3307,-1.3311,-1.3341,-1.3347,-1.3351,-1.329,-1.3289,-1.3289,0,0,-1.277,-1.2803,-1.2846,-1.2879,-1.2928,-1.2954,-1.2964,-1.3016,-1.3035,-1.309,-1.3105,-1.3143,-1.3218,-1.3251,-1.3277,-1.3324,-1.3334,-1.3337,-1.3351,-1.3381,-1.3385,-1.3389,-1.3406,-1.3411,-1.3342,-1.3342,-1.3342,0,-1.2774,-1.2839,-1.2867,-1.2911,-1.294,-1.2958,-1.3002,-1.3032,-1.3092,-1.3112,-1.3107,-1.32,-1.3234,-1.3297,-1.3309,-1.333,-1.3342,-1.3331,-1.3382,-1.3387,-1.3391,-1.3407,-1.3413,-1.3342,-1.3342,-1.3342,-1.3342,0,-1.2842,-1.2886,-1.2915,-1.2972,-1.3004,-1.3047,-1.3081,-1.311,-1.3124,-1.315,-1.3205,-1.3245,-1.3296,-1.3312,-1.3327,-1.3378,-1.3375,-1.3376,-1.3368,-1.3396,-1.3411,-1.3418,-1.3342,-1.3342,-1.3342,-1.3342,0,0,-1.2875,-1.2946,-1.2956,-1.2982,-1.3037,-1.3072,-1.3115,-1.3164,-1.3188,-1.3229,-1.3265,-1.3327,-1.3328,-1.3358,-1.3377,-1.3403,-1.3437,-1.3401,-1.3402,-1.3406,-1.3494,-1.3493,-1.35,-1.3443,-1.3444,-1.3445,-1.349,0,-1.2919,-1.2998,-1.3023,-1.3089,-1.3129,-1.3147,-1.3184,-1.3221,-1.3246,-1.3284,-1.3311,-1.3354,-1.3352,-1.337,-1.3397,-1.3427,-1.3455,-1.3424,-1.3477,-1.3479,-1.3465,-1.3508,-1.3507,-1.3548,-1.3496,-1.3497,-1.3498,0,-1.2982,-1.3023,-1.3092,-1.314,-1.3158,-1.3191,-1.3238,-1.3274,-1.3316,-1.3332,-1.3364,-1.338,-1.3425,-1.3414,-1.3476,-1.3454,-1.3477,-1.3495,-1.3497,-1.3504,-1.3491,-1.3515,-1.3561,-1.3567,-1.3508,-1.3507,-1.3507,0,-1.2999,-1.3071,-1.3121,-1.3143,-1.32,-1.3223,-1.3248,-1.3289,-1.3317,-1.3357,-1.3375,-1.342,-1.3445,-1.3479,-1.3506,-1.3496,-1.3566,-1.3557,-1.358,-1.358,-1.3595,-1.3594,-1.3645,-1.3609,-1.3609,-1.3609,-1.3609,0,-1.3045,-1.3087,-1.313,-1.3161,-1.3207,-1.3235,-1.328,-1.3306,-1.3342,-1.3378,-1.3395,-1.3429,-1.3463,-1.35,-1.3521,-1.3569,-1.358,-1.3594,-1.3599,-1.3593,-1.3591,-1.3609,-1.3607,-1.3611,-1.361,-1.361,-1.361,0,-1.3073,-1.3103,-1.3159,-1.3208,-1.3221,-1.3253,-1.3296,-1.3326,-1.335,-1.3395,-1.3407,-1.3446,-1.3491,-1.3521,-1.3579,-1.3593,-1.3645,-1.3649,-1.363,-1.3633,-1.3654,-1.3652,-1.3719,-1.3729,-1.3686,-1.3687,-1.3687,0,-1.3101,-1.3133,-1.3185,-1.321,-1.3235,-1.3275,-1.3303,-1.3332,-1.336,-1.3409,-1.3433,-1.3479,-1.3517,-1.3587,-1.362,-1.3664,-1.367,-1.369,-1.3677,-1.3669,-1.367,-1.3668,-1.3671,-1.3693,-1.3693,-1.3693,-1.3694,0,-1.3147,-1.316,-1.32,-1.3244,-1.3276,-1.3313,-1.3349,-1.3368,-1.3403,-1.3433,-1.3479,-1.3509,-1.3566,-1.3611,-1.3658,-1.3683,-1.3694,-1.3697,-1.3705,-1.3699,-1.3687,-1.3693,-1.3636,-1.3696,-1.3696,-1.3696,-1.3696,-1.3695,-1.3176,-1.3205,-1.3246,-1.3288,-1.3318,-1.3352,-1.3382,-1.341,-1.3448,-1.3498,-1.3512,-1.3559,-1.3599,-1.3662,-1.3688,-1.3725,-1.3723,-1.3734,-1.3737,-1.3739,-1.3739,-1.368,-1.3733,-1.3733,-1.3733,-1.3733,-1.3733,0,-1.3223,-1.325,-1.3289,-1.3339,-1.3372,-1.3378,-1.3418,-1.3446,-1.3487,-1.3523,-1.356,-1.3612,-1.3655,-1.369,-1.3735,-1.3757,-1.3764,-1.3768,-1.3767,-1.3773,-1.3738,-1.3727,-1.3762,-1.3762,-1.3762,-1.3762,-1.3762,-1.3762,-1.3252,-1.33,-1.3318,-1.3381,-1.3407,-1.3454,-1.3476,-1.3506,-1.3535,-1.3592,-1.3627,-1.365,-1.3686,-1.3732,-1.3772,-1.3781,-1.3797,-1.38,-1.3811,-1.3778,-1.3775,-1.3772,-1.3762,-1.3803,-1.3804,-1.3842,-1.3842,-1.3842]}]]